Prestwick, United Kingdom

8:08 AM BST on September 20, 2017 (GMT +0100)
Prestwick

Weather History for EGPK - January, 2013

Change the Weather History Date:

Wednesday, January 2, 2013

  Actual Average Record
Temperature  
Mean Temperature 46 °F -  
Max Temperature 51 °F 44 °F 51 °F (2013)
Min Temperature 42 °F 34 °F 26 °F (2002)
Degree Days  
Heating Degree Days 18    
Moisture  
Dew Point 47 °F    
Average Humidity 94    
Maximum Humidity 100    
Minimum Humidity 87    
Precipitation  
Precipitation 0.00 in - - ()
Sea Level Pressure  
Sea Level Pressure 30.02 in    
Wind  
Wind Speed 10 mph ()    
Max Wind Speed 20 mph    
Max Gust Speed -    
Visibility 4.5 miles    
Events Rain    
Averages and records for this station are not official NWS values.
T = Trace of Precipitation, MM = Missing Value Source: Averaged Metar Reports

Daily Weather History Graph

Daily Weather History Graph

Search for Another Location

Airport or City:

Trip Planner

Search our weather history database for the weather conditions in past years. The results will help you decide how hot, cold, wet, or windy it might be!

Date:

Astronomy

Jan. 02, 2013 Rise Set
Actual Time 8:45 AM GMT 3:59 PM GMT
Civil Twilight 8:00 AM GMT 4:44 PM GMT
Nautical Twilight 7:12 AM GMT 5:32 PM GMT
Astronomical Twilight 6:27 AM GMT 6:17 PM GMT
Moon 10:19 PM GMT (1/2) 10:24 AM GMT (1/2)
Length of Visible Light 8h 44m
Length of Day
7h 13m
Waning Gibbous, 77% of the Moon is Illuminated
Jan 2
Waning Gibbous
Jan 5
Last Quarter
Jan 11
New
Jan 18
First Quarter
Jan 27
Full

Hourly Weather History & Observations

Time (GMT) Temp. Windchill Dew Point Humidity Pressure Visibility Wind Dir Wind Speed Gust Speed Precip Events Conditions
12:50 AM 44.6 °F 39.2 °F 41.0 °F 87% 29.95 in 6.2 mi West 10.4 mph - N/A   Partly Cloudy
1:50 AM 44.6 °F 41.4 °F 41.0 °F 87% 29.98 in 6.2 mi SW 5.8 mph - N/A   Partly Cloudy
4:20 AM 44.6 °F 42.2 °F 42.8 °F 93% 30.01 in 6.2 mi South 4.6 mph - N/A   Partly Cloudy
4:50 AM 44.6 °F 40.7 °F 42.8 °F 93% 30.01 in 6.2 mi South 6.9 mph - N/A Rain Light Rain
5:50 AM 44.6 °F 39.7 °F 41.0 °F 87% 29.95 in 6.2 mi South 9.2 mph - N/A Rain Light Rain
6:20 AM 44.6 °F 39.2 °F 41.0 °F 87% 29.95 in 6.2 mi South 10.4 mph - N/A   Mostly Cloudy
6:50 AM 42.8 °F 38.0 °F 41.0 °F 93% 29.98 in 4.3 mi SSE 8.1 mph - N/A Rain Light Rain
7:20 AM 42.8 °F 39.3 °F 42.8 °F 100% 29.98 in 4.3 mi South 5.8 mph - N/A Rain Light Rain
7:50 AM 44.6 °F 38.1 °F 42.8 °F 93% 29.95 in 4.3 mi South 13.8 mph - N/A Rain Light Rain
8:20 AM 44.6 °F 38.4 °F 42.8 °F 93% 29.95 in 5.6 mi South 12.7 mph - N/A Rain Light Rain
8:50 AM 46.4 °F 42.9 °F 44.6 °F 93% 29.98 in 6.2 mi SSW 6.9 mph - N/A   Light Drizzle
9:20 AM 46.4 °F 41.5 °F 44.6 °F 93% 29.98 in 3.7 mi SSW 10.4 mph - N/A   Light Drizzle
9:50 AM 48.2 °F - 46.4 °F 93% 29.98 in 3.7 mi SSW 11.5 mph - N/A   Light Drizzle
10:20 AM 48.2 °F - 46.4 °F 93% 29.98 in 3.1 mi SSW 11.5 mph - N/A Rain Light Rain
10:50 AM 48.2 °F - 48.2 °F 100% 29.98 in 3.7 mi SW 9.2 mph - N/A Rain Light Rain Showers
11:20 AM 50.0 °F - 48.2 °F 94% 29.98 in 3.7 mi SW 8.1 mph - N/A Rain Light Rain Showers
11:50 AM 50.0 °F - 48.2 °F 94% 29.98 in 3.7 mi SSW 9.2 mph - N/A Rain Light Rain Showers
12:20 PM 50.0 °F - 50.0 °F 100% 29.98 in 3.1 mi SW 12.7 mph - N/A Rain Light Rain Showers
12:50 PM 51.8 °F - 50.0 °F 94% 29.98 in 3.1 mi SW 11.5 mph - N/A Rain Light Rain
1:20 PM 50.0 °F - 50.0 °F 100% 29.98 in 2.5 mi SW 13.8 mph - N/A Rain Light Rain
1:50 PM 51.8 °F - 50.0 °F 94% 30.01 in 2.5 mi SW 17.3 mph - N/A Rain Light Rain
2:20 PM 51.8 °F - 50.0 °F 94% 30.01 in 2.5 mi SW 15.0 mph - N/A Rain Light Rain
2:50 PM 50.0 °F - 50.0 °F 100% 30.01 in 2.5 mi SSW 8.1 mph - N/A Rain Light Rain
3:20 PM 50.0 °F - 50.0 °F 100% 30.04 in 2.5 mi WSW 10.4 mph - N/A Rain Light Rain
3:50 PM 50.0 °F - 50.0 °F 100% 30.04 in 2.5 mi SW 8.1 mph - N/A Rain Light Rain
4:20 PM 50.0 °F - 50.0 °F 100% 30.01 in 2.5 mi WSW 13.8 mph - N/A Rain Light Rain
4:50 PM 51.8 °F - 50.0 °F 94% 30.01 in 5.6 mi WSW 15.0 mph - N/A   Mostly Cloudy
5:20 PM 51.8 °F - 50.0 °F 94% 30.04 in 5.6 mi WSW 18.4 mph - N/A   Mostly Cloudy
5:50 PM 51.8 °F - 50.0 °F 94% 30.04 in 6.2 mi SW 19.6 mph - N/A   Mostly Cloudy
6:20 PM 51.8 °F - 50.0 °F 94% 30.04 in 4.3 mi WSW 16.1 mph - N/A Rain Light Rain
6:50 PM 51.8 °F - 50.0 °F 94% 30.04 in 5.6 mi SW 16.1 mph - N/A Rain Light Rain
7:20 PM 51.8 °F - 50.0 °F 94% 30.06 in 5.6 mi SW 15.0 mph - N/A   Light Drizzle
7:50 PM 51.8 °F - 50.0 °F 94% 30.06 in 5.6 mi WSW 18.4 mph - N/A   Light Drizzle
8:20 PM 51.8 °F - 50.0 °F 94% 30.06 in 5.6 mi WSW 17.3 mph - N/A Rain Light Rain
8:50 PM 51.8 °F - 50.0 °F 94% 30.09 in 5.6 mi SW 17.3 mph - N/A Rain Light Rain
9:20 PM 51.8 °F - 50.0 °F 94% 30.09 in 5.6 mi SW 17.3 mph - N/A Rain Light Rain
9:50 PM 51.8 °F - 50.0 °F 94% 30.09 in 3.7 mi SW 16.1 mph - N/A Rain Light Rain
10:20 PM 51.8 °F - 50.0 °F 94% 30.09 in 6.2 mi SW 13.8 mph - N/A Rain Light Rain
10:50 PM 51.8 °F - 50.0 °F 94% 30.12 in 4.3 mi SW 16.1 mph - N/A Rain Light Rain
11:20 PM 51.8 °F - 50.0 °F 94% 30.12 in 4.3 mi SW 16.1 mph - N/A Rain Light Rain
11:50 PM 51.8 °F - 50.0 °F 94% 30.12 in 3.1 mi SW 16.1 mph - N/A Rain Light Rain